This demonstration page uses our WeatherBlox Daily Observations layout. Learn more.

Left ArrowRight Arrow

Hourly Observations for August 6, 2021

Temp ( °F °C ) Dew Point ( °F °C ) Humidity (%) Winds ( mph kmh ) Pressure ( in mb ) Visibility ( mi km ) Precip ( " mm )
12:56 am 00:56 Clear 69 20.6 61 16.1 76 76 S 9 15 29.88 1012 10 16 0.00 0.00
1:56 am 01:56 Clear 71 21.7 60 15.6 68 68 SSW 12 19 29.86 1011 10 16 0.00 0.00
2:56 am 02:56 Clear 72 22.2 59 15 64 64 SSW 14 22 29.83 1010 10 16 0.00 0.00
3:56 am 03:56 Clear 71 21.7 59 15 66 66 SSW 12 19 29.85 1011 10 16 0.00 0.00
4:56 am 04:56 Clear 70 21.1 58 14.4 66 66 SW 12 19 29.85 1011 10 16 0.00 0.00
5:56 am 05:56 Clear 67 19.4 58 14.4 73 73 W 3 6 29.87 1012 10 16 0.00 0.00
6:56 am 06:56 Sunny 62 16.7 59 15 90 90 E 8 13 29.89 1012 9 14 0.00 0.00
7:56 am 07:56 Sunny 65 18.3 60 15.6 84 84 SSE 8 13 29.90 1013 10 16 0.00 0.00
8:56 am 08:56 Sunny 70 21.1 64 17.8 82 82 SSE 10 17 29.90 1013 10 16 0.00 0.00
9:56 am 09:56 Sunny 75 23.9 65 18.3 71 71 SSE 10 17 29.89 1012 10 16 0.00 0.00
10:56 am 10:56 Sunny 78 25.6 66 18.9 67 67 SSE 12 19 29.88 1012 10 16 0.00 0.00
11:56 am 11:56 Sunny 82 27.8 67 19.4 60 60 SSE 16 26 29.87 1012 10 16 0.00 0.00
12:56 pm 12:56 Sunny 85 29.4 69 20.6 59 59 SSE 10 17 29.87 1012 10 16 0.00 0.00
1:56 pm 13:56 Sunny 89 31.7 68 20 50 50 SSE 15 24 29.83 1010 10 16 0.00 0.00
2:56 pm 14:56 Sunny 91 32.8 66 18.9 44 44 S 18 30 29.81 1010 10 16 0.00 0.00
3:56 pm 15:56 Sunny 92 33.3 65 18.3 41 41 S 16 26 29.79 1009 10 16 0.00 0.00
4:56 pm 16:56 Sunny 91 32.8 67 19.4 45 45 SSE 14 22 29.77 1008 10 16 0.00 0.00
5:56 pm 17:56 Sunny 91 32.8 68 20 47 47 SSE 10 17 29.76 1008 10 16 0.00 0.00
6:56 pm 18:56 Sunny 88 31.1 68 20 52 52 SSE 9 15 29.76 1008 10 16 0.00 0.00
7:56 pm 19:56 Sunny 83 28.3 66 18.9 57 57 SSE 12 19 29.75 1008 10 16 0.00 0.00
8:56 pm 20:56 Clear 80 26.7 65 18.3 60 60 SSE 9 15 29.76 1008 9 14 0.00 0.00
9:56 pm 21:56 Clear 79 26.1 62 16.7 56 56 SSE 15 24 29.75 1007 10 16 0.00 0.00
10:56 pm 22:56 Clear 79 26.1 60 15.6 52 52 S 17 28 29.76 1008 10 16 0.00 0.00
11:56 pm 23:56 Clear 79 26.1 63 17.2 58 58 SSW 13 20 29.78 1009 10 16 0.00 0.00

Powered by AerisWeather